CZ-4C R/B, 43012

Orbit data source: Space-Track

CZ-4C R/B, 43012 is space debris in SSO originally from a launch on Tue, 14 Nov 2017 UTC via a CHANG ZHENG 4C launch vehicle from the Taiyaun Space Center, China (TSC). Debris objects in space refer to the collection of defunct objects orbiting the Earth. Examples of debris include non-operational satellites, rocket bodies, and fragments generated from explosions, collisions, or faulty payload assembly.

Loading next visibility...
Identifier
43012, 2017-072C
Orbit
SSO
Country
Flag of CNCN / PRC
Related business
Flag of CNFudan University (CN)
Manufacturer
Fudan Univ
Mission
Spacecraft
Bus & Motor
XINYUN, Unknown motor
Mass
1,001 kg wet, 1 kg dry
Launch date (UTC)
2017-11-14 (8 years ago)
Launch vehicle
CHANG ZHENG 4C
Launch site
Taiyaun Space Center, China (TSC)
Object type
Payload
Rocket body
Debris
Shape & HBR
Cyl, 3.8 m
Radar Cross Section
20.385 m², Large (>1 m²)

Expand to show TLE details & history
Last TLE update: 17 hours ago

TLE from 17 hours ago
0 CZ-4C R/B
1 43012U 17072C   25310.24017619  .00000856  00000-0  17657-3 0  9996
2 43012  98.5753  46.1195 0124013 118.3735 243.0032 14.58497723424132
Epoch: 2025-11-06T05:45Z
TLE epoch observation values (Epoch: 2025-11-06T05:45:51.222Z)
Latitude
-0.00005°
Longitude
-86.04525°
Altitude
741.701 km
Speed
7.462 km/s
True Right ascension
03h 04m 28s
True Declination
0° 00' 00"
Sunlit
Object was in full shadow at epoch
Visualization orbit readout
Latitude
Unknown
Longitude
Unknown
Altitude
Unknown
Speed
Unknown
Apparent Right ascension
Unknown
Apparent Declination
Unknown
Sunlit
N/A
Visualization observer readout
Local Sidereal Time
18:57:07
Azimuth
Unknown
Elevation
Unknown
Doppler factor
Unknown
Orbital elements
Apogee altitude
782.847 km
Perigee altitude
607.411 km
Semi-major axis
7,073.266 km
Eccentricity
0.0124
Inclination
98.5753°
RAAN
46.1195°
Arg. of periapsis
118.3735°
True anomaly
241.74592°
Mean anomaly
243.0032°
Eccentric anomaly
242.37367°
Mean motion
3.64849 °/min
Orbital period
98.67 mins
BSTAR
0.00017657
Loading maneuver chart data...
Computing Atmospheric mass density...
Loading historical data...
Loading historical data...
Loading historical data...
Loading historical data...
Loading historical data...
Loading historical data...
Loading historical data...
Other satellites on launch #72 in the year 2017 (2017-11-14 UTC)

Documentation

Showing up to 5 results
|